カタログに戻る

THOR ABLESTAR DEB

LostLEO
NORAD 48830·DEBRIS·🇺🇸 United States

打ち上げ Jun 29, 1961 から Cape Canaveral Space Force Station

Loading…

次のパス (今後24時間)

TLE

古いSource: Space-Track

元期: Mar 4, 2025, 10:31 UTC

1 48830U 61015NJ  25063.43860922  .00000505  00000-0  42145-3 0  9995
2 48830  66.9072  83.9376 0016505 226.8112 133.1592 13.96381581540389

AllMySatでTHOR ABLESTAR DEBをリアルタイム追跡

Download on the App Store